Observations for Trim Patrick St
| Time | AQI | Temp °C | Hum % | Pres Pa | CO μg/m³ | H₂S μg/m³ | NO μg/m³ | NO₂ μg/m³ | O₃ μg/m³ | SO₂ μg/m³ | PM1 μg/m³ | PM2.5 μg/m³ | PM10 μg/m³ |
|---|---|---|---|---|---|---|---|---|---|---|---|---|---|
| Monday 3 August 2026 | |||||||||||||
| 13:12 | 2 | 30.2 | 32 | 69,191 | 0 | 0 | 1.25 | 12.22 | 102.18 | 10.79 | 4.57 | 10.79 | 11.87 |
| 13:11 | 2 | 30.2 | 35 | 69,193 | 0 | 0 | 1.48 | 17.55 | 153.58 | 11.57 | 2.86 | 9.77 | 10.74 |
| 13:10 | 2 | 30.1 | 35 | 69,197 | 0 | 0 | 1.46 | 13.83 | 149.56 | 11.36 | 4.57 | 9.73 | 10.7 |
| 13:09 | 2 | 30.1 | 35 | 69,177 | 0 | 0 | 1.44 | 13.2 | 104.85 | 11.44 | 4.57 | 11.36 | 12.49 |
| 13:07 | 2 | 30.1 | 35 | 69,179 | 0 | 0 | 1.44 | 14.81 | 170.32 | 12.27 | 3.71 | 9.72 | 10.69 |
| 13:06 | 2 | 30.1 | 36 | 69,181 | 0 | 0 | 1.47 | 13.21 | 126.86 | 12.93 | 3.71 | 9.71 | 10.68 |
| 13:05 | 2 | 30.1 | 32 | 69,181 | 0 | 0 | 1.26 | 17.07 | 147.55 | 10.75 | 2.86 | 8.37 | 9.21 |
| 13:04 | 2 | 30.2 | 32 | 69,185 | 0 | 0 | 1.31 | 14.64 | 121.89 | 10.72 | 3.71 | 9.95 | 10.94 |
| 13:03 | 2 | 30.2 | 33 | 69,189 | 0 | 0 | 1.36 | 19.71 | 164.52 | 11.54 | 2.86 | 9.1 | 10.01 |
| 13:02 | 2 | 30.2 | 33 | 69,193 | 0 | 0 | 1.44 | 14.88 | 114.54 | 10.86 | 3.71 | 9.86 | 10.84 |
| 13:01 | 2 | 30.2 | 31 | 69,199 | 0 | 0 | 1.27 | 14.12 | 107.14 | 9.43 | 3.71 | 10.8 | 11.88 |
| 13:00 | 2 | 30.3 | 33 | 69,204 | 0 | 0 | 1.37 | 20.88 | 137.74 | 11.03 | 3.71 | 9.9 | 10.89 |
| 12:59 | 2 | 30.3 | 35 | 69,210 | 0 | 0 | 1.49 | 20.05 | 161.12 | 10.82 | 3.71 | 9.77 | 10.75 |
| 12:58 | 2 | 30.3 | 32 | 69,195 | 0 | 0 | 1.3 | 12.92 | 124.55 | 10.81 | 3.71 | 9.96 | 10.96 |
| 12:57 | 2 | 30.3 | 33 | 69,202 | 0 | 0 | 1.37 | 19.9 | 176 | 9.97 | 3.71 | 10.69 | 11.76 |
| 12:56 | 2 | 30.3 | 34 | 69,212 | 0 | 0 | 1.43 | 11.04 | 106.24 | 11.98 | 3.71 | 9.85 | 10.83 |
| 12:55 | 2 | 30.3 | 34 | 69,195 | 0 | 0 | 1.43 | 14.27 | 174.43 | 12.14 | 3.71 | 9.84 | 10.83 |
| 12:52 | 2 | 30.3 | 34 | 69,179 | 0 | 0 | 1.57 | 12.19 | 166.13 | 11.11 | 4.57 | 11.38 | 12.52 |
| 12:50 | 2 | 30.3 | 33 | 69,212 | 0 | 0 | 1.51 | 9.52 | 87.04 | 10.37 | 4.57 | 10.67 | 11.74 |
| 12:46 | 2 | 30.3 | 35 | 69,208 | 0 | 0 | 1.66 | 5.93 | 116.27 | 12.08 | 2.86 | 8.92 | 9.81 |